Regional Weather Roundup
Issued by NWS Newport/Morehead, NC

Current Version | Previous Version | Graphics & Text | Print | Product List | Glossary Off
Versions: 1 2 3 4 5 6 7 8 9 10 11 12 13 14 15 16 17 18 19 20 21 22 23 24 25 26 27 28 29 30 31 32 33 34 35 36 37 38 39 40 41 42 43 44 45 46 47 48 49 50

000
ASUS42 KMHX 232025
RWRMHX
WEATHER ROUNDUP FOR EASTERN NORTH CAROLINA
NATIONAL WEATHER SERVICE NEWPORT/MOREHEAD CITY NC
400 PM EDT WED MAY 23 2018

NOTE: "FAIR" INDICATES FEW OR NO CLOUDS BELOW 12,000 FEET
WITH NO SIGNIFICANT WEATHER AND/OR OBSTRUCTIONS TO VISIBILITY

NCZ015>017-031-032-045>047-102-103-232100-
NORTH COAST

CITY           SKY/WX    TMP DP  RH WIND       PRES   REMARKS
EDENTON        FAIR      87  73  64 SW10      29.98F
ELIZABETH CITY FAIR      87  74  64 SW10      29.96F
KITTY HAWK     FAIR      81  70  68 W6        29.96F
MANTEO         CLOUDY    81  71  70 NW6       29.98F

$$

NCZ045>047-081-094-103-104-232100-
CENTRAL COAST

CITY           SKY/WX    TMP DP  RH WIND       PRES   REMARKS
FRISCO         FAIR      79  73  82 SW18G25   30.02F

$$

NCZ095-097-098-100-101-232100-
SOUTHERN COAST

CITY           SKY/WX    TMP DP  RH WIND       PRES   REMARKS
BEAUFORT       FAIR      79  73  82 SW22G30   30.04F
CEDAR ISLAND   NOT AVBL
JACKSONVILLE   CLOUDY    82  74  76 S8        30.01F
PINEY ISLAND   NOT AVBL
WILMINGTON     FAIR      80  72  76 SW9       30.04F


$$

NCZ011>013-027>030-043-044-078>080-089-090>093-098-232100-
COASTAL PLAIN

CITY           SKY/WX    TMP DP  RH WIND       PRES   REMARKS
AHOSKIE        FAIR      85  71  64 S3        29.97F
CLINTON        FAIR      87  71  58 W6        30.01F
ELIZABETHTOWN  LGT RAIN  79  72  79 SW8       30.02S
GOLDSBORO      FAIR      87  71  58 SW14      29.99F
GREENVILLE     FAIR      86  70  58 W3        30.00F
HAVELOCK       HVY RAIN  82  76  81 SW14G23   30.02F
KENANSVILLE    LGT RAIN  81  72  74 W9        30.03R
KINSTON        MOSUNNY   88  68  51 W8        30.01F
NEW BERN       FAIR      85  71  63 W7        30.01F
RICHLANDS      FAIR      81  74  79 CALM      30.02F
ROCKY MOUNT    FAIR      87  70  56 W6        30.00F
WASHINGTON     PTSUNNY   88  70  54 W3        29.99F
WHITEVILLE     PTSUNNY   84  71  64 S12       30.03S

$$

AMZ130-135-150-152-154-156-158-170-250-252-270-ANZ085-086-088-633-658-670-232100-
MARINE OBSERVATIONS

STATION/POSITION TIME  TEMP    WIND        PRES    WAVE   SWELL
                       AIR SEA DIR/SP/G            HT/PER HT/PER
                 (UTC) (F)     (DEG/KT/KT) (MB)    (FT/S) (FT/S)
CHESAPEAKE LIGHT NOT AVBL
64 E VA BEACH    1950   72 70  260/  6/  8 1016.1    3/ 5   3/ 5
DUCK             2000   81 64  260/ 12/ 15 1014.8
2 E DUCK         2000      67                N/A     2/ 8
OREGON INLET     1948   79 78  190/ 18/ 21 1015.3
13E OREGON INLT  1948      67                N/A     3/ 5   2/ 8
HATTERAS CG      2000   77 76  220/ 14/ 21 1016.0
DIAMOND BUOY     2010   76 74  220/ 19/ 23 1016.7
CAPE LOOKOUT     2000          210/ 16/ 20 1017.5
BEAUFORT LAB     2000   78 77  210/ 14/ 18 1017.1
30 SE NEW RVR IN 2008   76     210/ 16/ 19 1017.3
30 SE NEW RVR IN 2000      76                N/A     5/ 5
27 SE WRIGHTSVLE 2008   76 76  220/ 17/ 25 1018.0
5 SE WRIGHTSVLE  2008   75 74  140/ 16/ 19 1016.8
225 S CAPE HAT   2000      78  230/  8/ 10 1020.1
41 SE CHARLESTON 2000      76  210/ 10/ 12 1018.8

$$




USA.gov is the U.S. government's official web portal to all federal, state and local government web resources and services.